Home   Weather   Koudougou   Past weeks

Flag for Burkina Faso Past Weather in Koudougou, Burkina Faso — Yesterday and Last 2 Weeks

88 °F


Feels Like: 90 °F
Forecast: N/A
Wind: 7 mph from East

Location: Ouagadougou Airport

Current Time: Oct 20, 2016 at 9:34:19 PM

Latest Report: Oct 20, 2016 at 8:00 PM

Visibility: 10 mi

Pressure: 29.92 "Hg

Humidity: 49%

Dew Point: 66 °F

Location of KoudougouLocation

Past Weather in Koudougou — Graph


Koudougou Temperature Yesterday

Maximum temperature yesterday: 97 °F (at 3:00 PM)
Minimum temperature yesterday: 77 °F (at 6:00 AM)
Average temperature yesterday: 86 °F

High & Low Weather Summary for the Past Weeks

High100 °F (Oct 17, 3:00 PM)94% (Oct 9, 6:00 AM)29.98 "Hg (Oct 9, 6:00 AM)
Low72 °F (Oct 15, 5:00 AM)33% (Oct 16, 4:00 PM)29.77 "Hg (Oct 6, 3:00 PM)
Average86 °F65%29.89 "Hg
* Reported Oct 5 8:00 PM — Oct 20 8:00 PM, Koudougou, Weather by CustomWeather, © 2016

Note: Actual official high and low records may vary slightly from our data, if they occured in-between our weather recording intervals... More about our weather records


Koudougou Weather History for the Previous 24 Hours

Scroll right to see more
Time TempWeatherWind HumidityBarometerVisibility
8:00 PM
Thu, Oct 20
88 °FClear.7 mph49%29.92 "Hg10 mi
7:00 PM88 °FClear.6 mph55%29.89 "Hg10 mi
5:00 PM95 °FPassing clouds.1 mph41%29.83 "HgN/A
4:00 PM97 °FPassing clouds.3 mph37%29.83 "HgN/A
2:00 PM99 °FScattered clouds.8 mph37%29.86 "HgN/A
1:00 PM99 °FScattered clouds.7 mph37%29.86 "HgN/A
12:00 PM95 °FPassing clouds.7 mph44%29.89 "HgN/A
11:00 AM93 °FPassing clouds.6 mph49%29.92 "HgN/A
10:00 AM91 °FPassing clouds.5 mph52%29.95 "HgN/A
9:00 AM90 °FClear.7 mph55%29.95 "Hg5 mi
8:00 AM84 °FClear.5 mph62%29.92 "Hg5 mi
7:00 AM79 °FClear.2 mph74%29.92 "Hg5 mi
6:00 AM75 °FSunny.2 mph78%29.89 "Hg10 mi
5:00 AM77 °FClear.2 mph79%29.89 "Hg10 mi
4:00 AM79 °FPassing clouds.5 mph74%29.89 "HgN/A
3:00 AM81 °FPassing clouds.6 mph74%29.89 "HgN/A
2:00 AM81 °FPassing clouds.6 mph74%29.89 "HgN/A
1:00 AM82 °FClear.7 mph70%29.89 "Hg10 mi
12:00 AM82 °FClear.7 mph70%29.92 "Hg10 mi
11:00 PM
Wed, Oct 19
84 °FClear.6 mph66%29.92 "Hg10 mi
10:00 PM84 °FClear.2 mph66%29.92 "Hg10 mi
9:00 PM82 °FPassing clouds.2 mph70%29.92 "HgN/A
Weather by CustomWeather, © 2016

See weather overviewHow to use our weather pages